User: anonymous   Login
Location: Baix
(44.7118°N, 4.7648°E)
Time: 17:55:22
(UTC+00:00)
Language:

Okean 1 Rocket - Orbit

View from above orbital plane
View from above orbital plane
View from above satellite
View from above satellite

Ground track
Ground track

The orbit data is extracted from the following two-line orbital elements,

1 19275U 88056B   20298.17991652  .00000103  00000-0  97484-5 0  9993
2 19275  82.5141 264.5024 0021263 128.7346 231.5774 14.82761227744773
Epoch (UTC): 24 October 2020 04:19:04
Eccentricity: 0.0021263
inclination: 82.5141°
perigee height: 606 km
apogee height: 635 km
right ascension of ascending node: 264.5024°
argument of perigee: 128.7346°
revolutions per day: 14.82761227
mean anomaly at epoch: 231.5774°
orbit number at epoch: 74477

The dashed part of the orbit path shows where the satellite is in the earth's shadow,  

DLR